Campeche, Mexico

2:14 PM CDT on May 29, 2017 (GMT -0500)
Alberto Acuna Ongay

Weather History for MMCP - October, 2012

Change the Weather History Date:

Friday, October 5, 2012

  Actual Average Record
Temperature  
Mean Temperature 80 °F -  
Max Temperature 90 °F 86 °F 96 °F (2014)
Min Temperature 70 °F 71 °F 65 °F (2015)
Cooling Degree Days 15    
Growing Degree Days 30 (Base 50)    
Moisture  
Dew Point 74 °F    
Average Humidity 86    
Maximum Humidity 100    
Minimum Humidity 53    
Precipitation  
Precipitation 0.67 in - - ()
Sea Level Pressure  
Sea Level Pressure 29.95 in    
Wind  
Wind Speed 4 mph ()    
Max Wind Speed 12 mph    
Max Gust Speed 23 mph    
Visibility 6.0 miles    
Events Rain , Thunderstorm    
Averages and records for this station are not official NWS values.
T = Trace of Precipitation, MM = Missing Value Source: Averaged Metar Reports

Daily Weather History Graph

Daily Weather History Graph

Search for Another Location

Airport or City:

Trip Planner

Search our weather history database for the weather conditions in past years. The results will help you decide how hot, cold, wet, or windy it might be!

Date:

Astronomy

Oct. 05, 2012 Rise Set
Actual Time 6:53 AM CDT 6:46 PM CDT
Civil Twilight 6:31 AM CDT 7:08 PM CDT
Nautical Twilight 6:06 AM CDT 7:33 PM CDT
Astronomical Twilight 5:40 AM CDT 7:59 PM CDT
Moon 10:45 PM CDT (10/5) 11:25 AM CDT (10/5)
Length of Visible Light 12h 36m
Length of Day
11h 52m
Waning Gibbous, 74% of the Moon is Illuminated
Oct 5
Waning Gibbous
Oct 8
Last Quarter
Oct 15
New
Oct 21
First Quarter
Oct 29
Full

Hourly Weather History & Observations

Time (CDT) Temp. Heat Index Dew Point Humidity Pressure Visibility Wind Dir Wind Speed Gust Speed Precip Events Conditions
12:50 AM 75 °F - 73 °F 91% 30.04 in 4 mi ENE 4.5 mph - - Rain Light Drizzle
3:50 AM 74 °F - 73 °F 94% 29.97 in 4 mi East 6.7 mph - -   Mostly Cloudy
5:10 AM 73.4 °F - 73.4 °F 100% 29.96 in 7.0 mi Calm Calm - N/A   Scattered Clouds
5:41 AM 73.4 °F - 73.4 °F 100% 29.97 in 7.0 mi Calm Calm - N/A   Scattered Clouds
6:42 AM 73.4 °F - 73.4 °F 100% 29.99 in 7.0 mi NNE 4.6 mph - N/A   Scattered Clouds
6:48 AM 74 °F - 73 °F 94% 29.99 in 6 mi East 2.2 mph - -   Partly Cloudy
7:45 AM 75.2 °F - 73.4 °F 94% 30.00 in 7.0 mi East 5.8 mph - N/A   Scattered Clouds
8:50 AM 77.0 °F - 73.4 °F 89% 30.01 in 7.0 mi East 4.6 mph - N/A   Scattered Clouds
9:48 AM 82.4 °F 89.5 °F 75.2 °F 79% 30.01 in 7.0 mi East 4.6 mph - N/A   Scattered Clouds
9:50 AM - - - % 30.00 in 6 mi East 2.2 mph - -   Scattered Clouds
10:41 AM 82.4 °F 89.5 °F 75.2 °F 79% 30.01 in 7.0 mi East 4.6 mph - N/A   Scattered Clouds
11:41 AM 84.2 °F 92.3 °F 75.2 °F 74% 30.00 in 7.0 mi NNE 4.6 mph - N/A   Scattered Clouds
12:46 PM 87.8 °F 97.6 °F 75.2 °F 66% 29.96 in 7.0 mi North 4.6 mph - N/A   Scattered Clouds
12:48 PM 88 °F - 76 °F 59% 29.97 in 6 mi NW 6.7 mph - -   Scattered Clouds
1:45 PM 84.2 °F 94.1 °F 77.0 °F 79% 29.94 in 7.0 mi NNW 6.9 mph - N/A   Scattered Clouds
2:47 PM 86.0 °F 93.4 °F 73.4 °F 66% 29.90 in 7.0 mi NW 8.1 mph - N/A   Scattered Clouds
3:50 PM 90 °F - 75 °F 53% 29.88 in 6 mi NNW 6.7 mph - -   Partly Cloudy
3:51 PM 84.2 °F 92.3 °F 75.2 °F 74% 29.88 in 7.0 mi NNW 9.2 mph - N/A   Scattered Clouds
4:47 PM 82.4 °F 88.2 °F 73.4 °F 74% 29.87 in 6.0 mi North 11.5 mph 23.0 mph N/A   Mostly Cloudy
5:00 PM 77.0 °F - 73.4 °F 89% 29.89 in 0.5 mi North - - N/A Rain Rain
5:20 PM 75.2 °F - 71.6 °F 89% 29.89 in 3.0 mi North 6.9 mph - N/A Rain , Thunderstorm Thunderstorms and Rain
5:53 PM 77.0 °F - 73.4 °F 89% 29.89 in 5.0 mi West 10.4 mph - N/A Rain Rain
6:50 PM 76 °F - 74 °F 94% 29.91 in 5 mi NNE 2.2 mph - - Rain Light Drizzle
6:50 PM 75.2 °F - 73.4 °F 94% 29.92 in 5.0 mi Calm Calm - N/A   Overcast
7:42 PM 75.2 °F - 73.4 °F 94% 29.92 in 7.0 mi Calm Calm - N/A   Overcast
8:41 PM 75.2 °F - 73.4 °F 94% 29.95 in 7.0 mi East 5.8 mph - N/A   Overcast
9:42 PM 75.2 °F - 73.4 °F 94% 29.95 in 7.0 mi Calm Calm - N/A   Mostly Cloudy
9:50 PM 75 °F - 73 °F 92% 29.96 in 4 mi NNE 2.2 mph - -   Partly Cloudy
10:43 PM 75.2 °F - 73.4 °F 94% 29.96 in 7.0 mi ESE 5.8 mph - N/A   Scattered Clouds
11:41 PM 75.2 °F - 73.4 °F 94% 29.94 in 7.0 mi ESE 5.8 mph - N/A   Mostly Cloudy